Time,TemperatureF,DewpointF,PressureIn,WindDirection,WindDirectionDegrees,WindSpeedMPH,WindSpeedGustMPH,Humidity,HourlyPrecipIn,Conditions,Clouds,dailyrainin,SoftwareType,DateUTC
2013-06-27 00:00:00,60.0,58.0,-100.00,WSW,249,6.0,-999.0,94,0.00,,,-99.99,,2013-06-27 07:00:00,
2013-06-27 00:22:00,60.0,58.0,-100.00,WSW,249,6.0,-999.0,94,0.00,,,-99.99,,2013-06-27 07:22:00,
2013-06-27 00:34:00,60.0,58.0,-100.00,WSW,249,6.0,-999.0,94,0.00,,,-99.99,,2013-06-27 07:34:00,
2013-06-27 00:52:00,60.0,58.0,-100.00,WSW,249,6.0,-999.0,94,0.00,,,-99.99,,2013-06-27 07:52:00,
2013-06-27 01:00:00,59.0,58.0,-100.00,SW,233,10.0,-999.0,94,0.00,,,-99.99,,2013-06-27 08:00:00,
2013-06-27 01:22:00,59.0,58.0,-100.00,SW,233,10.0,-999.0,94,0.00,,,-99.99,,2013-06-27 08:22:00,
2013-06-27 01:34:00,59.0,58.0,-100.00,SW,233,10.0,-999.0,94,0.00,,,-99.99,,2013-06-27 08:34:00,
2013-06-27 01:52:00,59.0,58.0,-100.00,SW,233,10.0,-999.0,94,0.00,,,-99.99,,2013-06-27 08:52:00,
2013-06-27 02:00:00,58.0,57.0,-100.00,SW,232,6.0,-999.0,95,0.00,,,-99.99,,2013-06-27 09:00:00,
2013-06-27 02:34:00,58.0,57.0,-100.00,SW,232,6.0,-999.0,95,0.00,,,-99.99,,2013-06-27 09:34:00,
2013-06-27 02:53:00,58.0,57.0,-100.00,SW,232,6.0,-999.0,95,0.00,,,-99.99,,2013-06-27 09:53:00,
2013-06-27 03:00:00,58.0,56.0,-100.00,WSW,240,6.0,-999.0,95,0.00,,,-99.99,,2013-06-27 10:00:00,
2013-06-27 03:22:00,58.0,56.0,-100.00,WSW,240,6.0,-999.0,95,0.00,,,-99.99,,2013-06-27 10:22:00,
2013-06-27 03:32:00,58.0,56.0,-100.00,WSW,240,6.0,-999.0,95,0.00,,,-99.99,,2013-06-27 10:32:00,
2013-06-27 03:54:00,58.0,56.0,-100.00,WSW,240,6.0,-999.0,95,0.00,,,-99.99,,2013-06-27 10:54:00,
2013-06-27 04:00:00,56.0,55.0,-100.00,SW,228,5.0,-999.0,95,0.00,,,-99.99,,2013-06-27 11:00:00,
2013-06-27 04:33:00,56.0,55.0,-100.00,SW,228,5.0,-999.0,95,0.00,,,-99.99,,2013-06-27 11:33:00,
2013-06-27 04:52:00,56.0,55.0,-100.00,SW,228,5.0,-999.0,95,0.00,,,-99.99,,2013-06-27 11:52:00,
2013-06-27 05:22:00,56.0,54.0,-100.00,SSW,200,1.0,-999.0,95,0.00,,,-99.99,,2013-06-27 12:22:00,
2013-06-27 05:34:00,56.0,54.0,-100.00,SSW,200,1.0,-999.0,95,0.00,,,-99.99,,2013-06-27 12:34:00,
2013-06-27 06:00:00,55.0,54.0,-100.00,NNE,21,1.0,-999.0,96,0.00,,,-99.99,,2013-06-27 13:00:00,
2013-06-27 06:22:00,55.0,54.0,-100.00,NNE,21,1.0,-999.0,96,0.00,,,-99.99,,2013-06-27 13:22:00,
2013-06-27 06:52:00,55.0,54.0,-100.00,NNE,21,1.0,-999.0,96,0.00,,,-99.99,,2013-06-27 13:52:00,
2013-06-27 07:33:00,55.0,54.0,-100.00,WSW,241,3.0,-999.0,96,0.00,,,-99.99,,2013-06-27 14:33:00,
2013-06-27 07:52:00,55.0,54.0,-100.00,WSW,241,3.0,-999.0,96,0.00,,,-99.99,,2013-06-27 14:52:00,
2013-06-27 08:00:00,58.0,57.0,-100.00,SSW,203,3.0,-999.0,95,0.00,,,-99.99,,2013-06-27 15:00:00,
2013-06-27 08:33:00,58.0,57.0,-100.00,SSW,203,3.0,-999.0,95,0.00,,,-99.99,,2013-06-27 15:33:00,
2013-06-27 08:52:00,58.0,57.0,-100.00,SSW,203,3.0,-999.0,95,0.00,,,-99.99,,2013-06-27 15:52:00,
2013-06-27 09:00:00,61.0,59.0,-100.00,South,190,5.0,-999.0,94,0.00,,,-99.99,,2013-06-27 16:00:00,
2013-06-27 09:23:00,61.0,59.0,-100.00,South,190,5.0,-999.0,94,0.00,,,-99.99,,2013-06-27 16:23:00,
2013-06-27 09:34:00,61.0,59.0,-100.00,South,190,5.0,-999.0,94,0.00,,,-99.99,,2013-06-27 16:34:00,
2013-06-27 09:53:00,61.0,59.0,-100.00,South,190,5.0,-999.0,94,0.00,,,-99.99,,2013-06-27 16:53:00,
2013-06-27 10:00:00,68.0,60.0,-100.00,SSW,198,6.0,-999.0,76,0.00,,,-99.99,,2013-06-27 17:00:00,
2013-06-27 10:33:00,68.0,60.0,-100.00,SSW,198,6.0,-999.0,76,0.00,,,-99.99,,2013-06-27 17:33:00,
2013-06-27 10:53:00,68.0,60.0,-100.00,SSW,198,6.0,-999.0,76,0.00,,,-99.99,,2013-06-27 17:53:00,
2013-06-27 12:00:00,72.0,59.0,-100.00,WSW,238,8.0,-999.0,61,0.00,,,-99.99,,2013-06-27 19:00:00,
2013-06-27 12:34:00,72.0,59.0,-100.00,WSW,238,8.0,-999.0,61,0.00,,,-99.99,,2013-06-27 19:34:00,
2013-06-27 12:53:00,72.0,59.0,-100.00,WSW,238,8.0,-999.0,61,0.00,,,-99.99,,2013-06-27 19:53:00,
2013-06-27 13:00:00,75.0,59.0,-100.00,SW,236,11.0,-999.0,58,0.00,,,-99.99,,2013-06-27 20:00:00,
2013-06-27 13:54:00,75.0,59.0,-100.00,SW,236,11.0,-999.0,58,0.00,,,-99.99,,2013-06-27 20:54:00,
2013-06-27 14:00:00,78.0,60.0,-100.00,SW,220,11.0,-999.0,54,0.00,,,-99.99,,2013-06-27 21:00:00,
2013-06-27 14:36:00,78.0,60.0,-100.00,SW,220,11.0,-999.0,54,0.00,,,-99.99,,2013-06-27 21:36:00,
2013-06-27 14:54:00,78.0,60.0,-100.00,SW,220,11.0,-999.0,54,0.00,,,-99.99,,2013-06-27 21:54:00,
2013-06-27 15:00:00,81.0,59.0,-100.00,SW,233,13.0,-999.0,47,0.00,,,-99.99,,2013-06-27 22:00:00,
2013-06-27 15:35:00,81.0,59.0,-100.00,SW,233,13.0,-999.0,47,0.00,,,-99.99,,2013-06-27 22:35:00,
2013-06-27 15:57:00,81.0,59.0,-100.00,SW,233,13.0,-999.0,47,0.00,,,-99.99,,2013-06-27 22:57:00,
2013-06-27 16:36:00,80.0,56.0,-100.00,WSW,239,23.0,-999.0,44,0.00,,,-99.99,,2013-06-27 23:36:00,
2013-06-27 16:46:00,80.0,56.0,-100.00,WSW,239,23.0,-999.0,44,0.00,,,-99.99,,2013-06-27 23:46:00,
2013-06-27 16:56:00,80.0,56.0,-100.00,WSW,239,23.0,-999.0,44,0.00,,,-99.99,,2013-06-27 23:56:00,
2013-06-27 17:00:00,79.0,56.0,-100.00,SW,232,18.0,-999.0,45,0.00,,,-99.99,,2013-06-28 00:00:00,
2013-06-27 17:37:00,79.0,56.0,-100.00,SW,232,18.0,-999.0,45,0.00,,,-99.99,,2013-06-28 00:37:00,
2013-06-27 17:45:00,79.0,56.0,-100.00,SW,232,18.0,-999.0,45,0.00,,,-99.99,,2013-06-28 00:45:00,
2013-06-27 17:55:00,79.0,56.0,-100.00,SW,232,18.0,-999.0,45,0.00,,,-99.99,,2013-06-28 00:55:00,
2013-06-27 18:00:00,77.0,57.0,-100.00,SW,217,16.0,-999.0,49,0.00,,,-99.99,,2013-06-28 01:00:00,
2013-06-27 18:36:00,77.0,57.0,-100.00,SW,217,16.0,-999.0,49,0.00,,,-99.99,,2013-06-28 01:36:00,
2013-06-27 18:47:00,77.0,57.0,-100.00,SW,217,16.0,-999.0,49,0.00,,,-99.99,,2013-06-28 01:47:00,
2013-06-27 18:56:00,77.0,57.0,-100.00,SW,217,16.0,-999.0,49,0.00,,,-99.99,,2013-06-28 01:56:00,
2013-06-27 19:00:00,73.0,56.0,-100.00,SW,227,12.0,-999.0,54,0.00,,,-99.99,,2013-06-28 02:00:00,
2013-06-27 19:37:00,73.0,56.0,-100.00,SW,227,12.0,-999.0,54,0.00,,,-99.99,,2013-06-28 02:37:00,
2013-06-27 19:49:00,73.0,56.0,-100.00,SW,227,12.0,-999.0,54,0.00,,,-99.99,,2013-06-28 02:49:00,
2013-06-27 19:55:00,73.0,56.0,-100.00,SW,227,12.0,-999.0,54,0.00,,,-99.99,,2013-06-28 02:55:00,
2013-06-27 20:00:00,69.0,55.0,-100.00,SSW,208,9.0,-999.0,62,0.00,,,-99.99,,2013-06-28 03:00:00,
2013-06-27 20:56:00,69.0,55.0,-100.00,SSW,208,9.0,-999.0,62,0.00,,,-99.99,,2013-06-28 03:56:00,
2013-06-27 21:00:00,63.0,56.0,-100.00,SW,219,6.0,-999.0,76,0.00,,,-99.99,,2013-06-28 04:00:00,
2013-06-27 21:53:00,63.0,56.0,-100.00,SW,219,6.0,-999.0,76,0.00,,,-99.99,,2013-06-28 04:53:00,
2013-06-27 22:00:00,60.0,55.0,-100.00,WSW,242,11.0,-999.0,85,0.00,,,-99.99,,2013-06-28 05:00:00,
2013-06-27 22:33:00,60.0,55.0,-100.00,WSW,242,11.0,-999.0,85,0.00,,,-99.99,,2013-06-28 05:33:00,
2013-06-27 22:53:00,60.0,55.0,-100.00,WSW,242,11.0,-999.0,85,0.00,,,-99.99,,2013-06-28 05:53:00,
2013-06-27 23:00:00,60.0,56.0,-100.00,West,259,11.0,-999.0,86,0.00,,,-99.99,,2013-06-28 06:00:00,
2013-06-27 23:34:00,60.0,56.0,-100.00,West,259,11.0,-999.0,86,0.00,,,-99.99,,2013-06-28 06:34:00,
2013-06-27 23:52:00,60.0,56.0,-100.00,West,259,11.0,-999.0,86,0.00,,,-99.99,,2013-06-28 06:52:00,